[[{"header":{"parameterUnit":"m.s-1","parameterCategory":1,"la1":30.2991,"la2":30.254,"lo1":-89.0895,"lo2":-89.0444,"dy":0.0017,"dx":0.0017,"nx":28,"ny":28,"refTime":"2025-09-17T21:00:00:Z","depth":0,"parameterNumber":2,"parameterNumberName":"U-component_of_WINDS"},"data":[0,0,0,0,0,0,0,0,0,0,0,0,0,0,0,0,0,0,0,0,0,0,0,0,0,0,0,0,0,0,0,0,0,0,0,0,0,0,0,0,0,0,0,0,0,0,0,0,0,0,0,0,0,0,0,0,0,0,-1.4021,-1.402,0,-1.3905,-1.3903,-1.3902,-1.3848,-1.3848,-1.3848,-1.3848,-1.3727,-1.3724,-1.3721,0,0,0,0,0,0,0,0,0,0,0,0,0,-1.4195,-1.4192,-1.4021,-1.402,-1.4018,-1.3905,-1.3903,-1.3902,-1.3848,-1.3848,-1.3848,-1.3848,-1.3728,-1.3724,-1.3721,0,0,0,0,0,0,0,0,0,0,0,0,0,-1.4103,-1.4191,-1.4021,-1.3978,-1.3973,-1.3905,-1.3903,-1.3901,-1.3848,-1.3848,-1.3848,-1.3848,-1.373,-1.3725,-1.372,-1.3687,0,0,-1.3705,-1.3703,0,0,0,0,0,0,0,0,-1.4109,-1.4097,-1.3985,-1.398,-1.3975,-1.3891,-1.392,-1.3829,-1.3848,-1.3895,-1.3848,-1.3848,-1.3782,-1.3772,-1.375,-1.3681,-1.3676,-1.3704,-1.3701,-1.3699,-1.3698,0,0,0,0,0,0,0,-1.4115,-1.4102,-1.3975,-1.3984,-1.3977,-1.3964,-1.3951,-1.3903,-1.3839,-1.3891,-1.3887,-1.3874,-1.3779,-1.3755,-1.3747,-1.3674,-1.3705,-1.37,-1.3697,-1.3695,-1.3573,-1.3573,0,0,0,0,0,0,-1.4129,-1.4107,-1.3979,-1.3971,-1.4043,-1.396,-1.3946,-1.3918,-1.3839,-1.3828,-1.3874,-1.3872,-1.3763,-1.3753,-1.3743,-1.3699,-1.3699,-1.3695,-1.3692,-1.3574,-1.3573,-1.3573,0,0,0,0,0,0,-1.4133,-1.4118,-1.3983,-1.4038,-1.402,-1.3957,-1.3926,-1.3915,-1.3892,-1.3826,-1.3815,-1.3862,-1.3763,-1.3749,-1.3701,-1.3694,-1.3692,-1.3688,-1.3574,-1.3574,-1.3573,-1.3612,0,0,0,0,0,0,-1.4138,-1.4119,-1.4106,-1.4038,-1.4017,-1.3945,-1.3925,-1.3913,-1.3884,-1.388,-1.3812,-1.3801,-1.3762,-1.3709,-1.3697,-1.3687,-1.3684,-1.3574,-1.3574,-1.3573,-1.3611,-1.3613,-1.3615,0,0,0,0,0,-1.4144,-1.4121,-1.4106,-1.4091,-1.4,-1.3944,-1.3932,-1.3889,-1.3883,-1.3869,-1.3828,-1.3803,-1.3697,-1.3705,-1.369,-1.3679,-1.3575,-1.3574,-1.3573,-1.361,-1.3613,-1.3615,0,0,0,0,0,0,-1.4188,-1.4111,-1.4094,-1.4048,-1.4003,-1.3935,-1.3916,-1.3892,-1.3848,-1.3846,-1.3794,-1.3779,-1.3736,-1.3703,-1.3712,-1.3644,-1.3634,-1.363,-1.3667,-1.3668,-1.367,-1.3679,-1.368,0,0,0,0,0,-1.4193,-1.4155,-1.4089,-1.4055,-1.4034,-1.3979,-1.3953,-1.3924,-1.3876,-1.3856,-1.3811,-1.3764,-1.3721,-1.3693,-1.3649,-1.3606,-1.3591,-1.3592,-1.3594,-1.3596,-1.3593,-1.3569,-1.3569,-1.3571,-1.3571,-1.3571,0,0,-1.4202,-1.4155,-1.4134,-1.4063,-1.4025,-1.3987,-1.3964,-1.3923,-1.3894,-1.385,-1.3802,-1.3768,-1.3712,-1.3667,-1.3645,-1.3638,-1.3589,-1.3595,-1.3597,-1.3593,-1.3568,-1.3568,-1.3568,-1.3571,-1.3571,-1.3571,0,0,-1.4198,-1.4159,-1.4126,-1.4089,-1.4033,-1.3997,-1.3989,-1.3925,-1.3901,-1.3852,-1.3818,-1.3783,-1.3709,-1.3671,-1.3642,-1.3627,-1.3602,-1.3614,-1.3623,-1.36,-1.36,-1.3599,-1.3594,-1.3593,-1.3612,-1.3612,-1.3612,0,-1.4215,-1.4157,-1.4113,-1.4075,-1.4045,-1.4004,-1.3972,-1.3937,-1.3869,-1.3849,-1.3843,-1.375,-1.371,-1.3656,-1.3653,-1.363,-1.362,-1.3621,-1.3604,-1.3603,-1.3602,-1.3596,-1.3594,-1.3613,-1.3613,-1.3613,-1.3613,0,-1.4181,-1.4141,-1.4122,-1.4059,-1.4027,-1.3991,-1.3942,-1.3915,-1.3889,-1.3854,-1.3806,-1.3757,-1.3703,-1.3688,-1.3662,-1.3631,-1.3629,-1.3614,-1.3602,-1.3604,-1.3598,-1.3595,-1.3616,-1.3615,-1.3615,-1.3614,0,0,-1.42,-1.4115,-1.4108,-1.4079,-1.4015,-1.3983,-1.3946,-1.3895,-1.3873,-1.3828,-1.3796,-1.3735,-1.3721,-1.3689,-1.3658,-1.3639,-1.363,-1.3626,-1.3624,-1.3629,-1.3594,-1.3605,-1.3604,-1.3614,-1.3614,-1.3613,-1.3599,0,-1.4188,-1.4121,-1.4081,-1.4031,-1.3993,-1.3955,-1.3924,-1.3881,-1.3848,-1.3811,-1.3774,-1.3732,-1.3717,-1.3697,-1.3676,-1.3636,-1.3623,-1.3636,-1.3584,-1.3583,-1.3599,-1.36,-1.3612,-1.36,-1.3596,-1.3596,-1.3595,0,-1.4163,-1.412,-1.4067,-1.4008,-1.399,-1.3963,-1.3913,-1.3879,-1.383,-1.3807,-1.3772,-1.3742,-1.3702,-1.3695,-1.364,-1.365,-1.3627,-1.3604,-1.3603,-1.3595,-1.3589,-1.3593,-1.3596,-1.3594,-1.3591,-1.3591,-1.3592,0,-1.4183,-1.4111,-1.407,-1.4047,-1.3977,-1.3959,-1.3929,-1.388,-1.3852,-1.3808,-1.379,-1.3742,-1.3716,-1.368,-1.3638,-1.3636,-1.3587,-1.3576,-1.3567,-1.3568,-1.3558,-1.3559,-1.3556,-1.3543,-1.3543,-1.3543,-1.3543,0,-1.4172,-1.4141,-1.4078,-1.4053,-1.4017,-1.3972,-1.3938,-1.3905,-1.3862,-1.383,-1.3794,-1.3764,-1.3711,-1.3674,-1.3641,-1.3601,-1.359,-1.357,-1.3562,-1.3573,-1.3576,-1.3556,-1.3556,-1.3543,-1.3543,-1.3543,-1.3543,0,-1.4187,-1.4144,-1.4097,-1.4036,-1.402,-1.3996,-1.3943,-1.3917,-1.3883,-1.3843,-1.3831,-1.3777,-1.3733,-1.3688,-1.3628,-1.3606,-1.3566,-1.3555,-1.3583,-1.3578,-1.3572,-1.3573,-1.3556,-1.3552,-1.3543,-1.3543,-1.3543,0,-1.4183,-1.4159,-1.4095,-1.4072,-1.4043,-1.4005,-1.3977,-1.3932,-1.3904,-1.3847,-1.3829,-1.3782,-1.3742,-1.3674,-1.3629,-1.3583,-1.357,-1.3568,-1.3563,-1.3576,-1.357,-1.3572,-1.357,-1.3569,-1.357,-1.357,-1.357,0,-1.4181,-1.4161,-1.4122,-1.4076,-1.4044,-1.4006,-1.3965,-1.3948,-1.3896,-1.3866,-1.3821,-1.3791,-1.3731,-1.3685,-1.3635,-1.3603,-1.3578,-1.3572,-1.3568,-1.3579,-1.3596,-1.3587,-1.3588,-1.3572,-1.3572,-1.3572,-1.3572,-1.3572,-1.4186,-1.4163,-1.4115,-1.4073,-1.4039,-1.4003,-1.3976,-1.3939,-1.3901,-1.3849,-1.3826,-1.3781,-1.3734,-1.3663,-1.3633,-1.3597,-1.359,-1.3584,-1.3582,-1.3581,-1.3584,-1.3603,-1.3588,-1.3588,-1.3588,-1.3588,-1.3588,0,-1.4182,-1.415,-1.4112,-1.4058,-1.4025,-1.4006,-1.3961,-1.3935,-1.3896,-1.3855,-1.3818,-1.3767,-1.3723,-1.3676,-1.3629,-1.361,-1.3597,-1.3599,-1.36,-1.3593,-1.3593,-1.3601,-1.361,-1.361,-1.361,-1.361,-1.361,-1.361,-1.4175,-1.4135,-1.4111,-1.4054,-1.4022,-1.3978,-1.3954,-1.3921,-1.3888,-1.3833,-1.3797,-1.3767,-1.3724,-1.3674,-1.3634,-1.3621,-1.3605,-1.3611,-1.3595,-1.3595,-1.3593,-1.3591,-1.3599,-1.3608,-1.3608,-1.3598,-1.3598,-1.3598]},{"header":{"parameterUnit":"m.s-1","parameterCategory":1,"la1":30.2991,"la2":30.254,"lo1":-89.0895,"lo2":-89.0444,"dy":0.0017,"dx":0.0017,"nx":28,"ny":28,"refTime":"2025-09-17T21:00:00:Z","depth":0,"parameterNumber":3,"parameterNumberName":"V-component_of_WINDS"},"data":[0,0,0,0,0,0,0,0,0,0,0,0,0,0,0,0,0,0,0,0,0,0,0,0,0,0,0,0,0,0,0,0,0,0,0,0,0,0,0,0,0,0,0,0,0,0,0,0,0,0,0,0,0,0,0,0,0,0,1.3376,1.3375,0,1.3329,1.3329,1.3328,1.3365,1.3366,1.3368,1.337,1.3317,1.3314,1.3311,0,0,0,0,0,0,0,0,0,0,0,0,0,1.3492,1.349,1.3376,1.3375,1.3375,1.3329,1.3329,1.3328,1.3365,1.3367,1.3368,1.337,1.3318,1.3314,1.3311,0,0,0,0,0,0,0,0,0,0,0,0,0,1.3443,1.3489,1.3376,1.3388,1.3388,1.3329,1.3329,1.3328,1.3364,1.3367,1.3369,1.3371,1.3319,1.3315,1.331,1.3236,0,0,1.3297,1.3295,0,0,0,0,0,0,0,0,1.3446,1.3438,1.3386,1.3387,1.3387,1.3355,1.335,1.3297,1.3364,1.3373,1.337,1.3372,1.3327,1.3322,1.3308,1.3234,1.3231,1.3297,1.3294,1.3292,1.3291,0,0,0,0,0,0,0,1.3449,1.3441,1.3357,1.3386,1.3386,1.3394,1.3389,1.334,1.3337,1.3372,1.3375,1.3369,1.3328,1.3312,1.3307,1.3231,1.3297,1.3293,1.329,1.3289,1.309,1.3088,0,0,0,0,0,0,1.3452,1.3443,1.3359,1.3356,1.3423,1.339,1.3385,1.3363,1.3338,1.3337,1.3367,1.3371,1.3319,1.3312,1.3306,1.3215,1.3292,1.3288,1.3286,1.3093,1.309,1.3087,0,0,0,0,0,0,1.3454,1.3444,1.3361,1.34,1.339,1.3385,1.336,1.3361,1.3345,1.3334,1.3333,1.3352,1.332,1.3312,1.3253,1.3213,1.3286,1.3282,1.3096,1.3092,1.3088,1.3034,0,0,0,0,0,0,1.3457,1.3445,1.3417,1.3399,1.3388,1.331,1.3358,1.3358,1.3338,1.3343,1.332,1.3318,1.3321,1.3259,1.3249,1.3209,1.3279,1.31,1.3094,1.309,1.3039,1.3028,1.3019,0,0,0,0,0,1.3461,1.3403,1.3416,1.3405,1.3354,1.3307,1.3301,1.3307,1.3335,1.3307,1.3299,1.3319,1.3221,1.3253,1.3241,1.32,1.3102,1.3096,1.309,1.3043,1.303,1.3019,0,0,0,0,0,0,1.3415,1.3401,1.3415,1.3349,1.333,1.3314,1.3278,1.3294,1.3264,1.3269,1.3278,1.3272,1.321,1.3199,1.3236,1.3125,1.3165,1.3157,1.3134,1.3121,1.3112,1.3114,1.3275,0,0,0,0,0,1.3397,1.3362,1.3352,1.3295,1.3284,1.3283,1.3263,1.327,1.3249,1.324,1.3229,1.3206,1.317,1.3146,1.3112,1.3039,1.3033,1.3004,1.2995,1.2987,1.2978,1.2936,1.2922,1.3067,1.3067,1.3067,0,0,1.336,1.3348,1.3325,1.3285,1.327,1.3232,1.3275,1.3233,1.3204,1.3233,1.3176,1.3168,1.3143,1.3076,1.3046,1.3065,1.2937,1.2979,1.2973,1.2968,1.2928,1.2914,1.2902,1.3063,1.3064,1.3064,0,0,1.3271,1.326,1.321,1.3195,1.3173,1.3173,1.3161,1.3143,1.3138,1.3082,1.3103,1.3068,1.3007,1.2987,1.297,1.2875,1.289,1.2864,1.281,1.2769,1.2758,1.2748,1.2711,1.2698,1.2856,1.2856,1.2855,0,1.3226,1.3171,1.3182,1.3138,1.3119,1.3146,1.3095,1.3079,1.3046,1.3031,1.3055,1.2977,1.2963,1.2891,1.2867,1.2853,1.2838,1.2864,1.2759,1.2749,1.274,1.2704,1.2691,1.2852,1.2853,1.2853,1.2853,0,1.3115,1.3077,1.3039,1.3008,1.2985,1.2937,1.294,1.2915,1.2925,1.2921,1.2863,1.2847,1.281,1.2794,1.2802,1.2722,1.2735,1.2759,1.2798,1.2722,1.2689,1.2676,1.2847,1.2849,1.285,1.285,0,0,1.2993,1.297,1.2956,1.2941,1.292,1.2889,1.2842,1.2807,1.2784,1.2762,1.272,1.2668,1.269,1.267,1.2677,1.2641,1.2563,1.2669,1.2668,1.2647,1.247,1.245,1.2434,1.2575,1.2573,1.2571,1.2471,0,1.2901,1.2821,1.283,1.2752,1.2715,1.2741,1.27,1.2681,1.2677,1.2643,1.2639,1.26,1.2634,1.2621,1.2588,1.258,1.2527,1.2588,1.2534,1.2532,1.2535,1.2417,1.2396,1.2302,1.2459,1.2457,1.2455,0,1.2782,1.2756,1.2674,1.2657,1.2642,1.2605,1.2573,1.2542,1.2521,1.252,1.2498,1.2511,1.2462,1.2506,1.2437,1.2477,1.2457,1.245,1.2446,1.2438,1.2486,1.2403,1.2273,1.2258,1.2435,1.2437,1.2438,0,1.2696,1.2641,1.2585,1.2572,1.2552,1.2525,1.2515,1.2496,1.2474,1.2446,1.2432,1.2398,1.2379,1.2352,1.2354,1.2387,1.2283,1.2328,1.2279,1.2278,1.2252,1.2253,1.2114,1.2245,1.2245,1.2246,1.2246,0,1.259,1.2539,1.2546,1.2511,1.2453,1.2465,1.2407,1.24,1.2384,1.2346,1.2367,1.2331,1.2339,1.2303,1.2305,1.2246,1.2238,1.2234,1.2235,1.223,1.223,1.2213,1.2219,1.2242,1.2243,1.2244,1.2244,0,1.2483,1.2487,1.2427,1.2413,1.2408,1.2366,1.2354,1.2319,1.2318,1.2271,1.226,1.2257,1.2215,1.2217,1.217,1.2171,1.2097,1.2107,1.2104,1.2105,1.2054,1.2057,1.1896,1.1874,1.2023,1.2022,1.2021,0,1.2413,1.2374,1.2357,1.2334,1.2323,1.2286,1.2264,1.2274,1.2249,1.2222,1.2191,1.2152,1.2121,1.2053,1.2045,1.2009,1.2015,1.1962,1.201,1.2006,1.201,1.2011,1.2006,1.1951,1.1949,1.1948,1.1947,0,1.2288,1.2292,1.226,1.2228,1.2202,1.2177,1.2155,1.2134,1.2142,1.2113,1.2072,1.2048,1.2,1.196,1.1925,1.1913,1.1929,1.1932,1.1918,1.1911,1.191,1.1906,1.2074,1.1935,1.1936,1.1937,1.1938,1.1938,1.2195,1.2161,1.2143,1.2106,1.2091,1.2069,1.2036,1.2031,1.1997,1.196,1.1968,1.192,1.1899,1.1855,1.184,1.1801,1.182,1.1801,1.1795,1.1789,1.1782,1.1919,1.1796,1.1796,1.1796,1.1797,1.1797,0,1.2067,1.2057,1.2024,1.1992,1.1963,1.1985,1.1961,1.1934,1.1892,1.1872,1.1842,1.1793,1.1754,1.1745,1.1707,1.1678,1.1684,1.1667,1.1667,1.1664,1.1769,1.1783,1.1663,1.1663,1.1663,1.1663,1.1663,1.1663,1.1997,1.1939,1.1941,1.1875,1.1866,1.182,1.1805,1.1784,1.1768,1.1713,1.1681,1.1676,1.1659,1.1621,1.1585,1.1583,1.1567,1.1546,1.1546,1.1643,1.1657,1.1669,1.1683,1.1543,1.1543,1.1444,1.1443,1.1442]}]]